Terug naar catalogus

BREEZE-M DEB

LostHEO
NORAD 35542·DEBRIS·🇷🇺 Russia

Gelanceerd Feb 28, 2006 vanaf Baikonur Cosmodrome

Loading…

Volgende Passages (komende 24 uur)

TLE

VerouderdSource: Space-Track

Epoch: Dec 16, 2024, 07:00 UTC

1 35542U 06006CK  24351.29207653  .00000351  00000-0  26558-2 0  9997
2 35542  51.5587 181.2103 4986396 217.5838 346.8014  5.14082260311040

Volg BREEZE-M DEB in realtime met AllMySat

Download on the App Store